Wetbulb
59.73 60.40 60.58 60.12 59.68 59.38 59.33 59.37 59.55 59.97 60.13 60.41 60.89 61.27 61.27 61.81 61.27 55.83 53.04 58.78 61.23 69.39 69.31 59.15 59.66 58.05 55.44 52.05 53.99 51.04 41.82 38.64 40.76 43.16 44.98 48.78 47.51 50.48 51.54 49.15 50.76 52.53 58.09 61.76 66.88
59.37 60.11 60.04 59.62 59.13 58.96 58.90 58.90 59.08 59.55 59.93 60.94 60.48 60.48 61.05 61.54 56.12 53.71 60.66 68.15 70.54 70.80 58.87 56.26 54.06 54.47 49.07 49.88 51.20 46.52 38.94 41.09 46.29 47.07 45.46 48.45 47.29 48.32 48.21 47.42 47.35 55.05 61.28 64.60 65.61
59.16 59.93 59.61 59.04 58.58 58.44 58.53 58.42 58.59 58.94 59.74 60.17 60.44 60.10 61.85 60.10 52.23 54.09 67.44 67.50 69.94 70.04 59.17 58.71 56.05 53.33 48.05 48.88 49.15 47.00 42.27 46.59 48.99 50.36 51.36 48.30 47.51 49.42 46.53 45.36 47.28 48.42 58.57 61.68 63.26
59.06 59.66 59.40 58.68 58.18 58.16 58.44 58.70 58.14 58.76 59.39 59.35 60.84 61.57 62.17 56.56 42.82 53.52 68.34 66.82 67.36 65.23 58.98 56.34 52.77 47.80 46.13 45.19 49.22 44.67 48.90 49.27 50.57 52.19 50.26 47.57 48.67 46.76 47.29 47.69 50.37 50.43 51.91 55.62 59.92
58.84 59.42 59.23 58.39 57.90 57.87 57.95 58.51 57.94 58.60 59.06 59.00 61.53 62.26 55.99 48.65 51.10 57.14 69.29 66.76 61.88 58.97 56.26 54.86 48.56 46.68 44.36 45.88 46.72 44.39 46.96 49.94 50.88 49.94 48.87 49.27 47.19 46.97 47.58 49.95 50.55 51.16 50.88 51.31 57.60
58.66 59.18 58.99 58.34 57.64 57.58 58.02 58.54 57.95 58.49 58.88 58.81 61.75 60.83 51.81 43.44 55.03 64.29 61.60 60.70 59.59 58.57 55.70 54.70 49.74 49.76 46.60 46.46 45.22 46.81 46.81 46.76 47.66 47.70 47.62 46.67 46.24 47.10 49.03 49.15 49.66 49.99 49.70 48.95 53.17
58.63 58.98 58.82 58.06 58.13 58.18 58.36 58.13 58.58 58.77 58.47 58.84 61.44 58.49 51.87 48.05 53.48 57.53 60.46 57.88 58.27 57.85 55.60 55.80 53.21 48.79 48.08 45.61 48.74 47.46 43.32 44.72 45.97 46.20 45.77 46.93 43.31 43.84 48.89 48.00 47.75 47.58 48.83 49.28 49.17
58.52 58.71 58.32 57.99 57.44 57.62 57.85 57.76 57.98 58.70 59.01 58.65 60.85 55.23 47.70 57.01 52.86 53.70 55.11 52.99 58.04 58.29 57.91 56.83 54.98 51.68 48.19 48.65 46.28 43.19 40.76 36.42 43.74 45.61 47.07 45.79 38.06 46.04 47.88 45.82 46.84 46.96 45.58 46.80 48.51
58.30 58.29 57.67 57.22 56.84 56.95 57.29 57.28 58.54 60.46 58.77 60.88 55.98 52.40 47.93 58.34 52.64 53.17 53.40 53.07 54.22 56.91 56.95 58.79 53.56 48.32 47.79 41.18 38.08 38.44 33.22 35.92 39.97 45.44 45.17 42.59 38.93 45.57 46.83 46.54 45.93 45.95 46.33 46.48 46.87
58.06 58.02 57.20 56.72 56.82 56.84 56.32 57.08 58.20 56.35 57.01 58.86 57.57 48.35 51.04 46.00 49.33 50.09 49.89 53.72 52.39 53.99 52.23 50.23 45.98 42.00 40.46 38.31 30.83 33.82 34.30 36.77 36.22 42.61 43.87 41.42 40.52 44.04 46.28 45.34 45.08 44.66 45.45 46.34 47.63
58.22 58.04 57.20 56.15 56.28 55.82 52.95 44.97 41.48 41.49 42.59 41.08 43.72 43.21 44.88 48.02 51.20 48.03 50.73 53.22 51.71 48.65 43.45 46.00 40.43 36.73 39.85 40.68 40.70 38.92 37.23 36.61 40.18 44.12 41.56 40.34 40.28 42.28 44.87 44.20 43.32 43.83 44.24 44.77 46.75
58.18 57.57 56.58 55.90 55.74 54.43 48.48 42.41 41.90 41.11 37.54 45.52 45.49 45.24 47.52 49.87 45.92 48.31 50.69 47.59 45.64 41.02 43.92 41.91 37.53 42.88 44.31 43.68 41.75 40.07 37.49 36.98 40.28 43.31 41.61 41.31 40.79 42.50 43.20 44.35 46.14 46.92 45.84 44.94 46.61
58.32 56.88 55.67 55.40 54.18 47.58 44.03 43.90 47.64 47.08 37.29 41.95 46.74 46.60 48.69 50.01 47.35 46.59 48.86 45.87 42.63 40.28 40.76 37.76 42.04 46.50 44.61 42.36 40.59 40.09 37.18 37.94 38.20 41.12 40.55 38.74 38.41 39.76 42.38 43.91 45.28 46.52 46.43 47.18 48.38
58.08 55.95 54.88 53.95 45.91 43.29 43.44 47.08 47.95 47.08 32.93 39.69 43.24 48.56 50.70 50.54 46.23 50.42 49.89 47.08 43.65 40.08 40.71 39.46 44.02 42.79 41.60 39.94 41.64 36.41 42.23 41.89 40.15 36.64 32.35 38.79 30.44 37.22 41.31 42.18 43.40 44.29 44.56 44.05 46.30
57.66 55.34 53.76 51.15 39.52 43.18 45.70 46.12 46.59 44.53 26.10 43.39 45.28 50.52 45.67 43.66 42.79 44.25 49.46 46.03 40.97 40.96 39.26 37.88 39.61 39.59 38.06 39.39 41.71 38.70 43.74 41.61 40.40 35.93 33.20 34.70 31.06 31.78 38.73 40.47 42.67 43.87 43.47 44.90 46.71
57.40 54.63 52.19 46.48 44.60 46.46 46.28 45.51 44.67 34.61 26.68 38.26 41.86 39.70 38.55 40.81 40.03 41.68 41.38 43.67 43.35 39.96 38.64 37.96 42.53 40.51 38.35 40.74 39.88 41.09 41.15 40.73 39.60 35.07 28.19 33.90 34.10 34.62 35.18 38.51 41.31 44.22 45.18 46.09 46.37
57.06 54.55 49.31 47.10 39.65 45.65 45.46 41.21 31.70 26.80 40.19 35.02 36.22 38.09 35.70 34.99 35.67 36.49 35.68 33.66 32.04 29.36 29.04 34.36 35.38 38.10 38.95 35.79 38.54 38.45 36.42 30.01 29.47 28.15 27.32 35.31 33.38 36.11 39.46 39.00 41.12 43.56 45.46 46.41 46.41
55.88 53.68 49.36 46.30 45.36 46.33 43.42 37.07 28.43 35.93 34.76 38.42 37.45 35.52 32.92 33.14 32.51 33.57 32.44 30.07 33.89 32.20 28.43 25.52 25.50 32.40 35.53 33.86 29.78 32.21 33.64 29.86 23.15 23.47 25.44 35.82 29.46 35.21 40.22 41.78 42.48 43.21 46.27 47.37 47.64
53.31 46.71 43.83 45.17 47.71 47.00 39.34 29.17 29.87 32.92 37.37 35.13 34.37 30.64 29.45 31.91 31.01 29.56 29.31 31.00 31.65 31.52 26.28 24.32 25.84 33.53 33.92 34.75 34.79 30.20 26.11 31.49 26.95 30.30 27.72 29.16 35.68 39.87 40.69 39.66 40.85 41.00 42.40 47.55 47.90
45.68 41.62 42.68 47.82 48.08 44.47 35.79 32.60 34.66 38.24 37.38 36.04 30.25 32.54 26.51 27.46 27.21 27.82 27.81 31.79 30.90 32.99 31.95 27.31 20.90 30.31 32.78 35.30 34.31 30.69 32.24 25.63 29.68 20.98 21.38 26.68 30.27 32.16 36.06 37.00 39.28 39.63 41.01 41.58 47.28
43.66 38.81 43.24 45.55 45.87 39.56 29.85 32.25 37.25 37.47 37.39 33.14 31.78 30.06 28.95 28.16 29.19 28.25 28.80 31.41 33.72 32.58 32.42 28.60 24.29 23.51 28.65 26.43 25.43 27.16 25.57 27.57 27.82 26.56 20.97 20.97 26.27 38.72 36.52 37.46 38.04 39.90 42.16 42.77 43.30
41.28 38.76 44.18 44.09 34.28 36.13 30.96 35.22 40.64 35.46 36.49 33.88 33.69 31.90 29.85 30.04 28.18 28.17 27.93 30.94 35.48 33.41 27.91 29.34 23.01 16.87 20.93 29.33 31.42 28.81 26.94 27.97 21.49 17.18 21.61 22.75 25.82 37.84 36.69 37.92 37.57 38.90 42.33 44.03 45.50
38.61 38.58 43.90 41.34 29.05 30.01 33.94 34.97 38.23 35.08 32.96 32.58 31.72 33.07 32.53 28.21 25.24 29.08 30.47 35.59 35.78 32.73 29.02 29.48 21.82 12.23 17.12 22.10 26.81 23.83 26.17 27.17 26.40 23.54 17.48 18.65 24.20 37.01 34.57 35.40 37.06 38.69 42.33 44.06 45.00
38.37 32.72 35.10 37.41 36.55 33.89 32.56 32.74 32.38 36.70 34.30 33.80 32.54 32.51 30.81 28.60 30.43 27.64 28.55 33.57 35.28 34.69 37.42 33.99 24.33 18.03 12.60 17.55 21.25 17.15 21.40 24.54 23.46 17.55 14.06 20.25 21.38 27.90 30.69 32.88 35.47 40.33 42.87 43.53 45.09
39.66 34.66 35.76 28.37 30.28 33.12 34.38 34.31 31.03 27.88 33.06 33.48 30.42 31.14 29.79 25.73 26.81 26.65 29.03 29.11 31.45 33.77 31.01 28.80 21.01 21.74 22.90 24.80 24.71 22.98 22.91 23.41 18.96 21.48 17.16 20.76 20.98 25.92 29.71 31.70 34.11 39.46 41.96 42.99 44.60
35.11 33.94 34.38 33.08 33.24 31.55 32.82 31.20 31.06 30.06 30.50 29.41 28.75 30.60 30.65 26.08 27.63 24.65 26.97 25.99 24.95 27.67 25.38 26.02 18.58 20.31 18.16 23.42 23.36 21.16 23.47 24.02 23.80 23.85 23.10 24.28 23.01 30.58 32.41 32.80 35.41 38.66 40.75 41.95 44.26
39.67 39.48 37.63 34.41 32.90 28.34 28.18 32.15 31.70 33.03 32.20 33.68 31.54 30.67 28.73 30.33 31.15 30.43 30.03 28.72 27.79 24.89 22.85 21.96 20.50 16.16 11.52 19.80 21.29 15.83 21.34 22.87 24.03 25.91 24.79 19.70 25.80 30.59 29.99 31.68 33.13 37.13 41.48 42.79 44.07
MSLP
1020.65 1020.30 1019.95 1019.58 1019.23 1018.83 1018.45 1018.05 1017.60 1017.11 1016.64 1016.13 1015.67 1015.25 1015.07 1014.69 1014.21 1013.74 1013.15 1011.42 1011.18 1011.05 1011.33 1011.58 1011.74 1011.71 1011.84 1012.17 1012.40 1013.00 1014.22 1014.34 1013.12 1012.11 1011.04 1010.08 1009.48 1008.55 1007.93 1007.61 1007.46 1007.54 1007.61 1007.26 1007.69
1020.73 1020.39 1020.00 1019.58 1019.16 1018.75 1018.36 1017.91 1017.46 1016.99 1016.49 1015.93 1015.42 1015.03 1014.81 1014.54 1014.18 1013.09 1011.17 1010.84 1010.77 1010.94 1011.30 1011.41 1011.69 1011.91 1012.39 1012.57 1012.81 1013.27 1013.95 1013.11 1011.94 1011.20 1010.75 1010.21 1010.02 1009.51 1008.93 1008.28 1007.91 1007.74 1007.49 1007.44 1007.58
1020.69 1020.30 1019.90 1019.43 1018.94 1018.46 1017.96 1017.53 1017.11 1016.68 1016.21 1015.65 1015.23 1014.88 1014.63 1014.54 1013.89 1011.44 1010.71 1010.82 1010.82 1010.97 1011.17 1011.36 1011.64 1011.95 1012.26 1012.47 1012.73 1013.07 1013.13 1012.43 1011.50 1010.92 1010.50 1010.20 1009.75 1009.48 1009.50 1009.10 1008.49 1008.35 1008.06 1007.92 1007.78
1020.64 1020.26 1019.84 1019.37 1018.89 1018.39 1017.85 1017.32 1016.82 1016.37 1015.86 1015.48 1015.07 1014.73 1014.38 1014.41 1013.05 1010.71 1010.54 1010.75 1010.92 1011.18 1011.50 1011.46 1011.82 1012.14 1012.45 1012.55 1012.39 1012.61 1012.07 1011.73 1011.11 1010.49 1010.50 1010.11 1009.47 1009.33 1009.37 1008.77 1008.56 1008.82 1008.57 1008.45 1008.30
1020.54 1020.13 1019.71 1019.32 1018.85 1018.23 1017.56 1017.00 1016.57 1016.13 1015.72 1015.37 1015.04 1014.71 1014.37 1013.85 1011.80 1010.46 1010.51 1010.73 1010.97 1011.20 1011.30 1011.53 1011.86 1012.10 1012.40 1012.47 1012.51 1012.47 1012.01 1011.46 1010.91 1010.46 1010.20 1009.89 1009.63 1009.59 1008.71 1008.26 1008.22 1008.10 1008.62 1008.54 1008.39
1020.61 1020.23 1019.75 1019.26 1018.73 1018.07 1017.31 1016.62 1016.06 1015.69 1015.37 1015.13 1014.96 1014.82 1014.59 1013.12 1010.52 1010.46 1010.71 1011.04 1011.12 1011.35 1011.39 1011.54 1011.41 1011.51 1011.83 1012.01 1012.19 1011.74 1011.55 1011.21 1010.69 1010.31 1010.21 1009.92 1009.58 1009.63 1007.86 1008.17 1008.29 1008.13 1007.89 1008.03 1008.06
1020.68 1020.31 1019.83 1019.26 1018.61 1017.85 1017.00 1016.11 1015.42 1015.09 1014.93 1014.80 1014.73 1014.76 1014.28 1011.90 1010.62 1010.61 1010.69 1010.62 1010.65 1010.92 1011.14 1011.13 1011.29 1011.73 1011.92 1012.16 1012.12 1011.99 1011.87 1011.30 1010.46 1010.20 1009.93 1009.52 1009.67 1009.14 1007.85 1008.19 1008.28 1008.14 1007.79 1007.44 1007.52
1020.60 1020.22 1019.82 1019.31 1018.62 1017.70 1016.62 1015.64 1014.87 1014.17 1014.14 1014.37 1014.54 1014.64 1013.13 1010.85 1010.70 1010.64 1010.50 1010.43 1010.41 1010.57 1010.80 1010.93 1011.00 1011.30 1011.61 1011.86 1012.12 1012.44 1012.30 1012.05 1010.98 1010.53 1009.65 1009.60 1009.13 1008.08 1007.62 1008.29 1008.38 1008.03 1007.70 1007.35 1007.14
1020.38 1020.12 1019.73 1019.14 1018.41 1017.53 1016.34 1015.18 1014.48 1013.70 1013.89 1014.15 1014.48 1014.23 1012.44 1010.67 1010.77 1010.74 1010.64 1010.65 1010.58 1010.56 1010.68 1010.78 1011.04 1011.78 1012.22 1012.88 1013.42 1013.33 1012.83 1012.30 1011.47 1010.44 1010.20 1010.22 1009.56 1008.51 1007.77 1007.99 1008.12 1007.76 1007.42 1007.32 1006.76
1020.14 1019.89 1019.52 1018.90 1018.15 1017.36 1016.17 1014.69 1014.29 1014.20 1014.32 1014.32 1014.21 1014.42 1012.34 1011.59 1011.15 1010.78 1010.47 1010.50 1010.63 1010.73 1011.08 1011.32 1011.99 1012.51 1013.31 1013.80 1014.09 1013.70 1013.48 1012.57 1011.67 1010.54 1010.08 1010.06 1009.57 1008.92 1008.27 1008.15 1007.91 1007.65 1007.24 1006.78 1006.41
1019.97 1019.66 1019.26 1018.70 1018.00 1017.45 1016.67 1015.22 1015.34 1014.79 1014.77 1014.59 1013.94 1013.29 1012.25 1011.40 1010.91 1010.50 1010.21 1010.50 1010.80 1011.19 1011.67 1011.97 1012.98 1013.22 1013.06 1013.39 1013.36 1013.46 1013.39 1012.90 1012.15 1011.02 1010.61 1010.02 1009.26 1009.15 1008.58 1008.35 1007.85 1007.45 1006.91 1006.34 1005.94
1019.76 1019.52 1019.21 1018.78 1018.19 1017.61 1017.14 1017.66 1018.00 1018.30 1016.69 1014.38 1013.85 1013.55 1012.45 1011.95 1011.47 1010.57 1010.30 1010.84 1011.13 1011.71 1012.25 1012.89 1012.81 1012.72 1012.94 1013.14 1013.30 1013.56 1013.44 1012.70 1011.74 1010.74 1010.45 1009.97 1008.70 1008.89 1008.65 1008.08 1007.38 1006.61 1006.01 1005.71 1005.29
1019.78 1019.59 1019.32 1018.69 1018.16 1017.93 1018.11 1018.24 1017.93 1018.23 1017.90 1014.18 1012.74 1011.91 1011.45 1011.54 1011.10 1010.62 1010.59 1011.06 1011.49 1012.04 1012.52 1013.14 1012.66 1012.44 1012.81 1012.87 1012.98 1012.81 1012.96 1012.40 1011.66 1010.93 1010.33 1010.05 1008.80 1008.57 1008.08 1007.34 1006.56 1005.71 1005.09 1004.87 1004.52
1019.55 1019.61 1019.49 1019.01 1018.50 1018.77 1018.49 1018.16 1017.95 1018.05 1017.60 1014.00 1012.19 1011.13 1011.20 1011.32 1011.19 1010.59 1010.57 1011.12 1011.75 1012.21 1012.35 1012.59 1012.06 1012.21 1012.27 1012.46 1012.22 1012.03 1011.81 1011.45 1011.42 1011.48 1011.01 1010.13 1009.44 1008.82 1007.94 1006.92 1006.11 1005.27 1004.87 1004.52 1004.01
1019.45 1019.59 1019.66 1019.53 1019.40 1019.00 1018.92 1018.45 1018.13 1018.41 1016.83 1012.89 1011.85 1011.07 1011.24 1011.57 1011.52 1011.17 1010.84 1011.10 1011.93 1012.31 1012.94 1012.68 1012.19 1012.02 1012.03 1012.07 1012.07 1011.73 1011.27 1011.35 1011.37 1011.57 1011.26 1011.01 1011.15 1008.40 1008.37 1007.69 1006.59 1005.73 1004.92 1004.52 1004.29
1018.86 1019.17 1019.26 1019.37 1019.75 1018.80 1018.30 1018.19 1018.29 1018.40 1015.61 1013.02 1011.97 1011.70 1011.95 1012.22 1012.40 1012.24 1012.33 1012.35 1012.83 1013.10 1013.46 1013.54 1012.73 1012.78 1012.62 1012.22 1012.30 1012.02 1011.74 1011.89 1011.93 1012.22 1011.93 1011.61 1011.41 1008.08 1009.25 1008.74 1007.64 1006.62 1005.43 1004.86 1004.84
1018.31 1018.71 1019.13 1018.97 1018.91 1018.44 1018.11 1018.26 1018.75 1017.44 1014.20 1013.79 1013.24 1013.04 1013.23 1013.40 1013.53 1013.67 1014.41 1014.81 1014.91 1014.84 1014.86 1014.79 1014.35 1014.02 1013.70 1013.24 1013.08 1013.04 1013.31 1014.60 1014.23 1013.59 1012.60 1011.61 1011.83 1009.64 1009.84 1010.28 1010.26 1008.20 1006.65 1005.90 1005.58
1018.13 1018.57 1018.81 1018.47 1018.18 1018.15 1018.38 1018.61 1018.01 1015.57 1014.63 1014.15 1013.74 1013.88 1014.16 1014.50 1014.74 1014.94 1015.43 1016.27 1016.46 1016.57 1016.69 1016.54 1016.22 1015.89 1015.66 1015.61 1015.48 1015.26 1015.52 1015.56 1015.75 1015.12 1014.26 1013.18 1012.00 1010.99 1011.19 1011.19 1010.12 1009.54 1008.63 1007.78 1007.52
1018.18 1018.86 1018.81 1018.27 1018.24 1018.33 1018.78 1018.13 1016.00 1015.06 1014.65 1014.88 1014.66 1014.78 1015.03 1015.29 1015.58 1015.92 1016.14 1016.98 1017.77 1017.82 1017.76 1017.92 1018.02 1017.55 1017.18 1016.85 1016.39 1016.95 1017.13 1017.50 1017.38 1016.34 1016.08 1013.84 1012.02 1011.30 1011.30 1011.47 1011.45 1011.40 1010.60 1009.95 1008.87
1017.59 1018.45 1018.16 1017.53 1017.99 1018.26 1018.75 1017.30 1015.87 1015.11 1015.06 1015.06 1015.57 1015.32 1015.83 1016.31 1016.68 1016.96 1016.69 1017.46 1018.03 1018.31 1018.30 1019.24 1019.28 1018.87 1018.54 1017.61 1017.82 1018.53 1018.98 1018.73 1018.52 1018.03 1016.75 1014.30 1013.22 1012.27 1012.43 1012.72 1013.17 1012.58 1012.11 1011.20 1009.99
1017.22 1018.14 1017.79 1017.87 1018.00 1018.89 1018.07 1016.51 1015.56 1015.15 1015.36 1015.82 1015.44 1016.14 1016.42 1016.75 1017.32 1017.75 1017.99 1018.50 1018.62 1018.66 1018.91 1019.61 1020.34 1020.50 1019.89 1019.94 1019.88 1019.80 1019.81 1019.84 1019.94 1019.46 1018.22 1016.49 1014.34 1013.78 1014.08 1014.16 1013.98 1013.44 1013.08 1012.19 1010.92
1017.03 1018.54 1018.25 1017.97 1018.77 1018.58 1017.92 1016.58 1015.85 1015.58 1015.80 1015.97 1016.44 1016.56 1016.65 1017.26 1017.29 1017.74 1018.15 1018.79 1019.12 1018.90 1019.64 1020.34 1021.08 1021.82 1021.68 1020.82 1020.51 1020.86 1021.42 1021.54 1021.53 1021.00 1020.11 1018.72 1015.66 1014.88 1014.57 1014.43 1014.46 1014.10 1013.38 1012.83 1011.41
1017.49 1018.57 1018.56 1018.36 1018.42 1018.48 1017.62 1016.73 1016.38 1016.24 1016.00 1016.31 1016.42 1016.97 1017.38 1017.60 1018.58 1018.27 1018.43 1018.95 1019.27 1019.49 1019.95 1020.56 1021.74 1022.63 1021.84 1022.01 1021.69 1022.12 1022.27 1022.69 1022.72 1022.34 1021.27 1019.84 1016.52 1015.13 1015.01 1014.72 1014.36 1014.22 1013.97 1013.74 1011.86
1017.76 1018.93 1019.55 1019.03 1018.54 1018.01 1017.74 1017.32 1017.38 1017.09 1017.14 1017.80 1016.82 1016.97 1017.39 1018.01 1018.75 1019.11 1018.93 1019.38 1019.53 1019.98 1020.27 1021.01 1022.38 1023.26 1023.42 1023.20 1022.98 1022.97 1023.06 1022.78 1022.75 1022.56 1021.57 1019.95 1018.02 1015.88 1015.32 1015.06 1014.25 1014.12 1013.93 1012.42 1011.80
1017.42 1017.98 1018.13 1019.31 1018.92 1018.85 1018.13 1017.51 1017.71 1017.79 1017.05 1017.58 1018.13 1017.54 1017.41 1018.35 1018.98 1019.14 1019.29 1019.93 1020.38 1020.64 1021.11 1021.75 1022.82 1023.60 1023.89 1023.38 1023.09 1022.99 1022.68 1022.04 1021.85 1021.40 1020.78 1019.38 1018.04 1016.43 1015.30 1014.39 1013.76 1013.50 1012.91 1012.41 1011.51
1017.67 1018.30 1018.89 1018.58 1018.31 1018.33 1018.31 1017.84 1017.32 1017.52 1017.38 1017.19 1017.40 1018.29 1018.03 1018.10 1018.21 1018.94 1019.22 1020.18 1020.84 1021.46 1021.90 1022.74 1023.49 1023.83 1023.75 1023.58 1023.24 1022.40 1021.44 1020.90 1020.33 1019.67 1018.86 1017.94 1016.57 1015.87 1014.67 1013.88 1013.23 1012.71 1012.46 1012.01 1011.25
1017.94 1018.18 1017.82 1018.14 1018.22 1018.22 1017.47 1017.10 1016.77 1016.97 1017.61 1017.91 1017.73 1017.58 1017.99 1018.01 1018.45 1019.19 1019.55 1020.24 1020.98 1021.76 1022.41 1023.26 1024.10 1024.72 1024.66 1023.80 1023.32 1022.01 1019.84 1019.34 1018.85 1017.96 1017.48 1016.72 1015.48 1014.68 1013.97 1013.15 1012.68 1012.33 1012.02 1011.70 1011.36
Wind_Speed
17 18 19 20 20 20 20 20 20 20 19 21 20 20 17 15 15 1 5 8 7 9 4 4 0 2 2 0 2 4 4 2 4 4 7 7 7 7 4 2 3 5 7 6 9
17 18 18 19 20 19 19 20 20 20 20 19 21 20 17 13 3 5 9 6 9 11 6 7 5 2 2 1 1 5 4 9 6 1 3 4 2 6 7 8 3 2 2 5 9
16 17 18 18 18 18 18 19 19 18 18 19 18 16 15 9 3 3 4 4 5 10 3 4 2 4 3 3 4 5 6 5 6 5 4 5 6 3 3 7 6 2 4 2 6
16 17 18 19 19 20 20 19 20 19 18 17 15 13 12 1 1 2 4 4 4 4 2 3 3 3 5 4 5 3 8 7 6 7 4 5 4 5 5 11 8 5 4 5 7
15 16 18 19 20 21 22 21 21 19 18 16 13 11 4 2 8 2 5 5 4 5 5 3 5 4 4 3 1 4 5 7 9 9 6 5 7 6 11 10 8 10 8 10 11
14 16 19 20 22 23 23 23 22 19 16 15 10 4 1 3 1 6 6 5 2 3 2 3 4 5 4 5 5 4 4 7 7 8 5 6 8 5 15 5 9 8 12 10 10
15 17 19 21 22 24 25 25 24 19 16 13 6 2 0 11 3 5 7 5 5 5 3 4 2 2 0 5 3 4 6 8 8 5 6 2 5 10 18 4 9 11 15 11 11
15 17 19 20 22 24 27 27 26 23 12 7 1 1 7 5 2 3 3 4 5 6 4 3 3 1 2 2 7 6 1 3 6 3 8 10 7 16 9 4 10 11 9 9 10
14 15 18 20 22 24 27 29 23 8 5 6 3 2 8 7 2 4 2 1 5 2 2 2 3 2 4 4 5 3 5 5 7 4 3 3 6 10 5 6 9 10 9 8 9
12 13 16 20 21 24 28 27 10 3 1 3 3 3 2 3 4 6 4 2 2 1 2 2 4 1 3 4 7 7 5 5 4 7 8 7 10 8 10 6 11 10 10 9 9
10 12 14 19 20 23 15 7 9 5 7 3 5 5 5 6 5 7 3 2 2 2 6 3 3 7 12 8 5 4 4 9 8 9 7 7 9 10 10 10 10 10 11 10 11
8 11 14 18 20 21 4 6 2 3 10 4 10 7 8 1 4 5 4 5 4 5 2 3 6 11 8 6 7 8 9 12 9 9 5 12 19 8 7 10 15 17 12 11 11
8 9 13 17 19 4 3 3 2 5 2 9 6 4 3 5 2 3 3 2 3 3 5 6 7 2 7 9 11 11 7 10 12 5 3 5 16 9 6 8 9 12 11 10 14
7 6 11 19 4 5 2 6 2 4 3 6 4 4 3 3 2 1 2 3 1 5 5 6 6 8 9 7 11 10 10 12 6 4 9 5 12 8 10 12 9 12 10 9 10
8 4 7 4 3 2 4 6 2 3 6 4 2 2 1 2 1 3 3 3 4 4 3 7 7 5 5 2 2 8 6 6 3 4 4 4 2 2 5 17 17 13 5 2 4
11 6 2 3 1 5 5 3 4 4 9 1 2 3 3 4 5 6 7 8 3 2 2 4 5 3 3 2 8 6 3 2 1 1 8 7 6 16 4 4 11 6 2 3 3
13 10 4 0 3 4 3 4 5 5 5 1 1 3 2 3 2 5 5 7 4 4 4 6 3 1 7 5 5 9 6 4 4 2 10 6 6 15 12 11 13 19 8 4 4
15 11 4 3 1 0 2 2 8 5 4 2 1 1 4 1 2 4 6 3 6 4 1 2 4 7 10 4 3 3 2 1 5 4 5 6 7 6 2 9 17 18 18 10 12
13 1 2 4 6 1 2 5 8 6 3 3 1 2 3 1 4 2 3 4 5 6 2 3 3 3 12 10 3 5 3 2 4 8 3 6 7 4 14 19 21 20 19 16 10
5 4 3 4 5 2 3 8 6 2 2 2 5 2 3 2 2 0 3 3 5 3 2 1 4 3 4 3 8 4 4 2 3 5 7 7 5 1 13 14 14 18 19 18 18
4 3 2 3 3 1 5 8 6 4 2 5 5 2 3 3 3 1 3 5 3 2 5 2 3 4 3 4 3 5 4 2 1 3 5 4 3 5 10 13 14 14 15 16 16
4 4 2 1 4 4 7 6 5 4 1 2 2 2 7 7 6 4 4 2 1 3 3 1 4 3 3 7 6 5 4 5 1 5 4 4 4 5 8 7 11 16 15 15 13
5 2 2 2 6 6 5 5 6 6 6 8 7 0 1 5 2 2 5 5 5 2 5 3 2 4 7 4 5 3 3 6 5 5 7 6 4 5 17 13 7 11 12 13 11
5 4 3 2 2 3 7 6 9 5 3 4 3 5 4 4 0 4 3 3 3 3 7 5 3 7 6 5 5 4 5 7 5 6 5 12 18 22 16 15 14 6 12 9 9
3 2 2 6 4 6 3 6 9 8 7 3 1 3 6 5 4 4 3 3 2 1 3 3 5 5 6 9 10 9 13 14 9 12 11 14 16 17 17 18 14 6 5 8 13
3 3 2 3 3 12 8 8 15 12 8 8 6 8 8 6 7 8 7 5 4 3 3 3 2 2 4 4 7 15 18 17 18 19 18 19 22 14 15 12 9 8 6 9 9
2 1 1 5 4 4 6 8 15 12 3 7 13 10 8 5 5 5 4 5 7 7 4 4 2 4 6 2 5 10 11 7 7 11 11 14 19 14 15 16 12 9 7 7 4
Wind_Direction
1 360 357 354 351 350 347 344 341 336 333 329 327 327 331 327 319 332 233 221 188 197 189 122 142 258 116 223 184 113 79 238 258 339 307 333 359 324 287 88 309 338 159 221 156
359 357 354 351 348 345 341 338 337 334 330 327 327 327 332 335 301 259 246 256 224 181 155 156 184 159 25 261 316 105 139 219 214 200 272 283 302 313 347 334 324 27 8 131 140
355 352 349 346 341 336 332 330 328 328 327 331 333 331 331 334 314 250 184 228 207 179 195 174 135 145 181 151 206 187 202 217 262 242 273 271 288 217 340 294 252 178 208 231 174
348 345 343 340 335 331 327 323 324 324 324 332 336 332 326 306 295 226 185 201 211 174 245 183 183 183 190 205 217 209 236 232 256 278 296 260 251 270 184 240 257 198 283 281 243
339 338 336 333 329 325 322 319 320 321 321 325 329 336 354 323 254 167 140 152 138 159 193 184 185 179 186 223 295 235 253 258 264 270 245 269 252 253 254 254 255 270 201 225 229
330 331 330 330 327 323 319 316 316 316 311 313 319 332 284 277 238 148 141 141 187 197 201 185 218 211 240 217 180 249 264 260 268 265 256 250 271 149 264 255 264 275 272 217 214
326 329 330 330 327 323 319 316 312 309 302 299 311 228 131 239 335 184 173 199 180 183 207 197 245 174 12 321 322 307 323 314 273 271 263 145 296 242 258 189 268 277 269 250 217
321 326 329 328 326 323 318 315 313 306 284 262 154 150 246 257 292 316 331 302 227 209 217 251 255 227 182 255 4 349 340 309 303 309 266 142 250 260 260 230 254 281 285 271 246
314 322 325 326 324 323 319 317 317 339 137 151 111 121 271 308 82 307 339 302 307 216 203 281 102 197 19 68 1 328 247 243 308 218 261 175 289 279 288 210 254 264 272 274 277
304 314 322 325 324 327 324 317 301 84 120 174 253 346 296 324 295 305 270 212 238 200 349 155 57 132 32 112 230 228 239 237 244 296 326 287 269 285 293 272 261 268 270 255 253
295 313 322 323 325 328 337 357 11 341 34 229 249 244 258 267 235 233 225 164 163 130 182 218 151 203 223 209 217 235 277 274 273 271 276 257 261 265 278 305 282 271 265 254 258
282 307 320 320 322 324 346 67 159 220 311 272 252 265 268 277 320 326 142 156 167 221 122 356 235 232 231 238 236 252 261 270 275 248 268 292 279 261 243 247 252 270 261 251 248
272 299 316 316 315 2 56 52 305 131 265 293 236 225 185 153 251 291 97 152 198 214 230 188 242 227 223 250 255 247 236 257 263 272 261 282 287 296 267 254 265 257 257 258 259
238 280 316 323 37 328 59 317 350 105 357 267 224 218 161 184 274 212 50 163 291 243 239 219 267 235 263 246 218 258 224 243 261 288 273 148 292 273 276 292 287 278 282 282 255
219 244 309 17 281 12 303 330 29 53 339 136 169 166 311 197 61 360 339 73 217 265 54 256 330 341 318 280 279 244 235 236 252 241 301 160 185 294 15 298 290 286 303 340 313
198 201 303 90 264 255 322 346 59 40 256 84 50 3 62 22 17 329 25 17 51 309 5 245 285 3 289 346 85 307 323 315 351 135 272 190 173 285 222 284 309 349 265 195 254
188 183 183 101 236 310 349 43 35 182 341 301 276 47 32 23 28 22 52 20 36 24 3 349 359 65 17 347 37 28 62 334 287 252 246 193 184 252 353 15 342 320 277 284 350
181 163 233 232 209 294 30 77 215 234 236 294 240 45 188 86 338 350 136 104 18 32 85 82 318 358 337 53 338 330 260 147 259 230 276 312 235 247 22 8 15 5 355 353 342
135 148 238 244 208 124 94 209 216 196 156 204 41 255 220 284 134 91 74 121 42 359 99 28 179 150 35 41 37 346 36 190 240 270 246 236 267 189 19 22 11 360 360 349 340
139 167 208 157 151 117 111 235 233 215 123 109 220 154 146 286 28 42 128 20 123 23 47 88 319 356 354 1 66 99 272 3 248 252 238 260 224 240 14 7 358 358 352 349 350
105 153 142 357 108 97 216 220 231 141 178 197 180 146 124 147 140 221 54 19 87 86 70 105 120 277 65 72 282 339 325 313 314 268 242 276 251 84 26 358 350 340 334 340 349
117 207 28 327 154 190 222 202 182 173 137 126 27 189 174 171 160 150 112 75 94 141 85 29 128 279 214 242 266 248 4 35 284 295 274 280 262 105 38 19 350 334 331 327 344
124 78 346 359 191 205 241 248 238 184 182 180 168 45 353 146 55 130 121 154 141 93 148 138 104 352 338 28 31 29 359 322 252 205 224 269 271 288 326 319 320 313 314 293 335
125 153 11 349 85 264 212 227 210 318 294 260 156 136 122 101 135 174 135 120 120 160 169 125 145 162 204 229 225 289 270 254 236 258 251 259 287 294 309 302 298 229 250 320 327
331 125 190 173 221 257 209 189 168 182 193 153 333 179 150 149 151 180 138 74 55 247 71 117 195 199 221 245 270 277 272 275 256 248 243 273 267 275 289 292 294 236 280 302 319
124 145 252 166 191 196 189 207 190 189 178 169 148 214 195 162 183 177 136 162 185 29 80 36 269 200 260 242 258 286 285 268 266 268 265 259 263 268 269 288 289 256 269 292 306
133 348 83 164 173 157 210 190 194 161 223 192 204 181 186 181 133 115 124 145 162 152 140 134 123 61 278 285 322 287 261 243 237 250 253 262 264 260 272 276 268 264 234 263 297